TimeCDT,TemperatureF,Dew PointF,Humidity,Sea Level PressureIn,VisibilityMPH,Wind Direction,Wind SpeedMPH,Gust SpeedMPH,PrecipitationIn,Events,Conditions,WindDirDegrees,DateUTC
12:15 AM,46.4,37.4,71,30.18,10.0,NE,5.8,-,N/A,,Overcast,40,2013-03-30 05:15:00
12:35 AM,46.4,35.6,66,30.18,10.0,NE,4.6,-,N/A,,Overcast,50,2013-03-30 05:35:00
12:55 AM,46.4,35.6,66,30.18,10.0,NNE,4.6,-,N/A,,Overcast,30,2013-03-30 05:55:00
1:15 AM,46.4,35.6,66,30.18,10.0,NE,3.5,-,N/A,,Overcast,50,2013-03-30 06:15:00
1:35 AM,46.4,35.6,66,30.17,10.0,NE,3.5,-,N/A,,Mostly Cloudy,40,2013-03-30 06:35:00
1:55 AM,46.4,35.6,66,30.17,10.0,Calm,Calm,-,N/A,,Overcast,0,2013-03-30 06:55:00
2:15 AM,46.4,37.4,71,30.16,10.0,NE,4.6,-,N/A,,Mostly Cloudy,50,2013-03-30 07:15:00
2:35 AM,46.4,37.4,71,30.17,10.0,Calm,Calm,-,N/A,,Overcast,0,2013-03-30 07:35:00
2:55 AM,46.4,35.6,66,30.16,10.0,NE,3.5,-,N/A,,Overcast,50,2013-03-30 07:55:00
3:15 AM,44.6,37.4,76,30.16,10.0,ENE,3.5,-,N/A,,Mostly Cloudy,60,2013-03-30 08:15:00
3:35 AM,44.6,35.6,71,30.16,10.0,Calm,Calm,-,N/A,,Mostly Cloudy,0,2013-03-30 08:35:00
3:55 AM,44.6,37.4,76,30.16,10.0,NE,4.6,-,N/A,,Overcast,50,2013-03-30 08:55:00
4:15 AM,44.6,37.4,76,30.16,10.0,Calm,Calm,-,N/A,,Overcast,0,2013-03-30 09:15:00
4:35 AM,44.6,37.4,76,30.15,10.0,Calm,Calm,-,N/A,,Overcast,0,2013-03-30 09:35:00
4:55 AM,44.6,37.4,76,30.16,10.0,NNE,3.5,-,N/A,,Overcast,20,2013-03-30 09:55:00
5:15 AM,44.6,37.4,76,30.16,10.0,Calm,Calm,-,N/A,,Overcast,0,2013-03-30 10:15:00
5:35 AM,44.6,37.4,76,30.16,10.0,Calm,Calm,-,N/A,,Overcast,0,2013-03-30 10:35:00
5:55 AM,44.6,37.4,76,30.16,10.0,Calm,Calm,-,N/A,,Overcast,0,2013-03-30 10:55:00
6:15 AM,42.8,37.4,81,30.16,10.0,Calm,Calm,-,N/A,,Mostly Cloudy,0,2013-03-30 11:15:00
6:35 AM,42.8,37.4,81,30.17,10.0,Calm,Calm,-,N/A,,Overcast,0,2013-03-30 11:35:00
6:55 AM,44.6,37.4,76,30.17,10.0,Calm,Calm,-,N/A,,Mostly Cloudy,0,2013-03-30 11:55:00
7:15 AM,44.6,37.4,76,30.17,10.0,NNE,3.5,-,N/A,,Mostly Cloudy,30,2013-03-30 12:15:00
7:35 AM,44.6,37.4,76,30.17,10.0,NE,3.5,-,N/A,,Mostly Cloudy,50,2013-03-30 12:35:00
7:55 AM,44.6,37.4,76,30.17,10.0,NE,3.5,-,N/A,,Scattered Clouds,40,2013-03-30 12:55:00
8:15 AM,44.6,39.2,81,30.18,10.0,NNE,4.6,-,N/A,,Scattered Clouds,30,2013-03-30 13:15:00
8:35 AM,46.4,39.2,76,30.18,10.0,NNE,4.6,-,N/A,,Clear,30,2013-03-30 13:35:00
8:55 AM,50.0,39.2,66,30.18,10.0,NNE,3.5,-,N/A,,Clear,30,2013-03-30 13:55:00
9:15 AM,51.8,37.4,58,30.17,10.0,Calm,Calm,-,N/A,,Clear,0,2013-03-30 14:15:00
9:35 AM,55.4,35.6,47,30.17,10.0,SE,4.6,-,N/A,,Clear,130,2013-03-30 14:35:00
9:55 AM,59.0,33.8,39,30.17,10.0,Calm,Calm,-,N/A,,Mostly Cloudy,0,2013-03-30 14:55:00
10:15 AM,59.0,33.8,39,30.16,10.0,Calm,Calm,-,N/A,,Mostly Cloudy,0,2013-03-30 15:15:00
10:35 AM,59.0,35.6,42,30.16,10.0,Calm,Calm,-,N/A,,Scattered Clouds,0,2013-03-30 15:35:00
10:55 AM,59.0,35.6,42,30.15,10.0,Calm,Calm,-,N/A,,Mostly Cloudy,0,2013-03-30 15:55:00
11:15 AM,60.8,37.4,42,30.15,10.0,Calm,Calm,-,N/A,,Mostly Cloudy,0,2013-03-30 16:15:00
11:35 AM,62.6,37.4,39,30.14,10.0,Calm,Calm,-,N/A,,Scattered Clouds,0,2013-03-30 16:35:00
11:55 AM,62.6,37.4,39,30.13,10.0,East,3.5,-,N/A,,Clear,90,2013-03-30 16:55:00
12:15 PM,64.4,39.2,40,30.12,10.0,WNW,4.6,-,N/A,,Clear,290,2013-03-30 17:15:00
12:35 PM,64.4,39.2,40,30.11,10.0,SW,9.2,-,N/A,,Clear,220,2013-03-30 17:35:00
12:55 PM,64.4,41.0,42,30.10,10.0,West,5.8,-,N/A,,Clear,280,2013-03-30 17:55:00
1:15 PM,66.2,42.8,43,30.09,10.0,SSW,5.8,-,N/A,,Clear,210,2013-03-30 18:15:00
1:35 PM,68.0,41.0,37,30.08,10.0,SSW,5.8,-,N/A,,Scattered Clouds,200,2013-03-30 18:35:00
1:55 PM,68.0,42.8,40,30.07,10.0,SSW,4.6,-,N/A,,Scattered Clouds,200,2013-03-30 18:55:00
2:15 PM,68.0,42.8,40,30.06,10.0,Calm,Calm,-,N/A,,Scattered Clouds,0,2013-03-30 19:15:00
2:35 PM,68.0,42.8,40,30.06,10.0,SW,6.9,-,N/A,,Scattered Clouds,220,2013-03-30 19:35:00
2:55 PM,68.0,42.8,40,30.05,10.0,SW,8.1,-,N/A,,Scattered Clouds,230,2013-03-30 19:55:00
3:15 PM,68.0,42.8,40,30.04,10.0,WSW,10.4,-,N/A,,Mostly Cloudy,240,2013-03-30 20:15:00
3:35 PM,64.4,44.6,49,30.06,7.0,WSW,19.6,23.0,N/A,Rain,Heavy Rain,250,2013-03-30 20:35:00
3:55 PM,59.0,51.8,77,30.08,4.0,SSW,5.8,10.4,N/A,Rain,Rain,210,2013-03-30 20:55:00
4:15 PM,57.2,53.6,88,30.08,4.0,SW,3.5,-,N/A,Rain,Rain,220,2013-03-30 21:15:00
4:35 PM,57.2,53.6,88,30.08,4.0,SW,8.1,-,N/A,Rain,Rain,230,2013-03-30 21:35:00
4:55 PM,55.4,53.6,94,30.08,4.0,SW,6.9,-,0.01,Rain,Rain,220,2013-03-30 21:55:00
5:15 PM,55.4,53.6,94,30.08,3.0,SW,5.8,-,N/A,Rain,Heavy Rain,220,2013-03-30 22:15:00
5:35 PM,55.4,51.8,88,30.07,4.0,Calm,Calm,-,N/A,Rain,Rain,0,2013-03-30 22:35:00
5:55 PM,55.4,51.8,88,30.06,4.0,Calm,Calm,-,0.01,Rain,Rain,0,2013-03-30 22:55:00
6:15 PM,55.4,51.8,88,30.06,4.0,Calm,Calm,-,N/A,Rain,Rain,0,2013-03-30 23:15:00
6:35 PM,55.4,51.8,88,30.04,5.0,ESE,3.5,-,N/A,Rain,Light Rain,110,2013-03-30 23:35:00
6:55 PM,55.4,51.8,88,30.04,7.0,Calm,Calm,-,N/A,Rain,Light Rain,0,2013-03-30 23:55:00
7:15 PM,53.6,51.8,94,30.04,4.0,Calm,Calm,-,0.02,Rain,Rain,0,2013-03-31 00:15:00
7:35 PM,53.6,51.8,94,30.04,4.0,Calm,Calm,-,0.02,Rain,Light Rain,0,2013-03-31 00:35:00
7:55 PM,53.6,51.8,94,30.02,4.0,Calm,Calm,-,0.02,Rain,Light Rain,0,2013-03-31 00:55:00
8:15 PM,53.6,51.8,94,30.01,7.0,SE,3.5,-,N/A,Rain,Rain,130,2013-03-31 01:15:00
8:35 PM,53.6,51.8,94,30.01,7.0,Calm,Calm,-,N/A,Rain,Rain,0,2013-03-31 01:35:00
8:55 PM,53.6,51.8,94,30.02,4.0,Calm,Calm,-,N/A,Rain,Rain,0,2013-03-31 01:55:00
9:15 PM,53.6,51.8,94,30.02,2.5,Calm,Calm,-,N/A,Rain,Light Rain,0,2013-03-31 02:15:00
9:35 PM,53.6,51.8,94,30.02,3.0,Calm,Calm,-,N/A,Rain,Rain,0,2013-03-31 02:35:00
9:55 PM,53.6,51.8,94,30.02,2.5,Calm,Calm,-,N/A,Rain,Rain,0,2013-03-31 02:55:00
10:15 PM,53.6,51.8,94,30.02,4.0,Calm,Calm,-,N/A,Rain,Rain,0,2013-03-31 03:15:00
10:35 PM,53.6,51.8,94,30.01,4.0,Calm,Calm,-,N/A,Rain,Rain,0,2013-03-31 03:35:00
10:55 PM,53.6,51.8,94,30.00,7.0,Calm,Calm,-,N/A,,Drizzle,0,2013-03-31 03:55:00
11:15 PM,53.6,51.8,94,30.00,7.0,WSW,3.5,-,N/A,,Drizzle,250,2013-03-31 04:15:00
11:35 PM,53.6,51.8,94,29.99,7.0,WSW,4.6,-,0.01,Rain,Light Rain,240,2013-03-31 04:35:00
11:55 PM,53.6,51.8,94,29.99,5.0,WSW,3.5,-,0.01,Rain,Rain,240,2013-03-31 04:55:00